Location: Unspecified
(0.0000°N, 0.0000°E)
Time: 12:26:04
(UTC+00:00)

ISS - Visible Passes

Search period start: 28 February 2015 00:00
Search period end: 10 March 2015 00:00
Orbit: 397 x 408 km, 51.6° (Epoch: 28 February)

Date Brightness Start Highest point End Pass type
(mag) Time Alt. Az. Time Alt. Az. Time Alt. Az.
28 Feb -3.0 18:48:10 10° NNW 18:51:17 44° NE 18:54:26 10° SE visible
01 Mar -0.2 19:32:41 10° W 19:34:41 15° SW 19:36:33 10° SSW visible
02 Mar -1.8 18:38:37 10° NW 18:41:41 39° SW 18:44:46 10° SSE visible
04 Mar -1.6 05:19:22 10° SSW 05:22:21 34° SE 05:25:21 10° ENE visible
05 Mar -0.2 04:27:46 10° SSE 04:29:18 13° SE 04:30:59 10° E visible
06 Mar -3.2 05:11:14 28° WSW 05:12:37 51° NW 05:15:45 10° NNE visible
07 Mar -0.5 04:22:02 15° NE 04:22:02 15° NE 04:22:43 10° NE visible
